Content
SEND FEEDBACK

Daily
Averages
Monthly
Summary
Spain

PUERTO DEL ROSARIO, SPAIN


Home > Europe > Spain
Elevation: 98 feet     Latitude: 28 27N     Longitude: 013 52W

WEATHER
 
SELECT A DAY
Number of Records: 216,494;   Date Range: 7/1/96 - 8/21/14
 
SHARE

PRINT THIS DATA

[ ← Previous Day ]
WEATHER ALMANAC - FEBRUARY 6, 2013
[ Next Day → ]
[ °C ]   °F
Weather ElementAverageHighLow
Temperature63.5 °F66.2 °F (1:30 pm)60.8 °F (7:00 am)
Dewpoint53.7 °F55.4 °F (7:30 am)51.8 °F (2:00 pm)
Humidity70.3 %77 % (7:00 am)60 % (2:00 pm)
Barometer30.25 in30.30 in (9:00 am)30.21 in (3:30 pm)
Wind Speed14.7 mph21.9 mph (8:30 pm)
Weather ElementAverage
Visibility6.2 mi
Wind DirectionNE (47.1 °)

Weather ElementTotal
Precipitation---
Heating Degree Days1.5 (Base 65)
Growing Degree Days13.5 (Base 50)
Averaged from 34 records on February 6, 2013
WEATHER CONDITIONS BREAKOUT
WIND DIRECTION BREAKOUT
WEATHER BY HOUR - FEBRUARY 6, 2013
[ °C ]   °F
Local TimeTemperatureDewpointHumidityBarometerVisibilityWind DirectionWind SpeedGust SpeedPrecipitationEventsConditions
6:30 AM62.6 °F53.6 °F72 %30.27 in6.2 miNE (50°)10.4 mphPartly Cloudy
7:00 AM60.8 °F53.6 °F77 %30.27 in6.2 miENE (60°)11.5 mphPartly Cloudy
7:30 AM62.6 °F55.4 °F77 %30.27 in6.2 miNE (50°)11.5 mphScattered Clouds
8:00 AM60.8 °F53.6 °F77 %30.27 in6.2 miNE (40°)13.8 mphScattered Clouds
8:30 AM62.6 °F53.6 °F72 %30.27 in6.2 miNE (50°)11.5 mphScattered Clouds
9:00 AM62.6 °F53.6 °F72 %30.30 in6.2 miNE (50°)10.4 mphScattered Clouds
9:30 AM62.6 °F53.6 °F72 %30.30 in6.2 miNE (50°)10.4 mphScattered Clouds
10:00 AM62.6 °F53.6 °F72 %30.30 in6.2 miNE (50°)11.5 mphScattered Clouds
10:30 AM62.6 °F53.6 °F72 %30.30 in6.2 miNE (50°)11.5 mphScattered Clouds
11:00 AM62.6 °F53.6 °F72 %30.30 in6.2 miNE (50°)12.7 mphScattered Clouds
11:30 AM64.4 °F53.6 °F68 %30.30 in6.2 miNE (50°)12.7 mphScattered Clouds
12:00 PM64.4 °F53.6 °F68 %30.30 in6.2 miNE (50°)13.8 mphScattered Clouds
12:30 PM64.4 °F53.6 °F68 %30.30 in6.2 miNE (40°)12.7 mphScattered Clouds
1:00 PM64.4 °F53.6 °F68 %30.27 in6.2 miNE (50°)13.8 mphScattered Clouds
1:30 PM66.2 °F53.6 °F64 %30.27 in6.2 miNE (50°)15.0 mphScattered Clouds
2:00 PM66.2 °F51.8 °F60 %30.24 in6.2 miNE (40°)13.8 mphPartly Cloudy
2:30 PM66.2 °F53.6 °F64 %30.24 in6.2 miNE (50°)13.8 mphPartly Cloudy
3:00 PM66.2 °F53.6 °F64 %30.24 in6.2 miNE (50°)12.7 mphPartly Cloudy
3:30 PM64.4 °F53.6 °F68 %30.21 in6.2 miENE (60°)13.8 mphPartly Cloudy
4:00 PM64.4 °F51.8 °F64 %30.21 in6.2 miNE (50°)13.8 mphPartly Cloudy
4:30 PM64.4 °F53.6 °F68 %30.21 in6.2 miNE (50°)13.8 mphPartly Cloudy
5:00 PM64.4 °F53.6 °F68 %30.21 in6.2 miNE (50°)15.0 mphPartly Cloudy
5:30 PM64.4 °F53.6 °F68 %30.21 in6.2 miNE (50°)13.8 mphPartly Cloudy
6:00 PM64.4 °F53.6 °F68 %30.21 in6.2 miNE (50°)17.3 mphPartly Cloudy
6:30 PM64.4 °F53.6 °F68 %30.21 in6.2 miNE (50°)18.4 mphPartly Cloudy
7:00 PM62.6 °F53.6 °F72 %30.21 in6.2 miNE (50°)18.4 mphPartly Cloudy
7:30 PM62.6 °F53.6 °F72 %30.24 in6.2 miNE (50°)15.0 mphPartly Cloudy
8:00 PM62.6 °F55.4 °F77 %30.21 in6.2 miNE (40°)17.3 mphPartly Cloudy
8:30 PM62.6 °F55.4 °F77 %30.21 in6.2 miNE (40°)21.9 mphScattered Clouds
9:00 PM62.6 °F53.6 °F72 %30.21 in6.2 miNE (40°)21.9 mphPartly Cloudy
9:30 PM62.6 °F53.6 °F72 %30.21 in6.2 miNE (40°)17.3 mphPartly Cloudy
10:00 PM62.6 °F53.6 °F72 %30.24 in6.2 miNNE (30°)18.4 mphPartly Cloudy
10:30 PM62.6 °F53.6 °F72 %30.24 in6.2 miNE (40°)19.6 mphPartly Cloudy
11:00 PM62.6 °F53.6 °F72 %30.21 in6.2 miNNE (30°)19.6 mphPartly Cloudy
Hourly data recorded from GCFV, located miles away from Puerto del Rosario, Spain







STORIES FROM OUR PARTNERS